Toronto Pearson, Ontario

12:02 AM EDT on May 29, 2017 (GMT -0400)
Toronto-Pearson International

Weather History for CYYZ - September, 2013

Change the Weather History Date:

Friday, September 27, 2013

  Actual Average Record
Temperature  
Mean Temperature 58 °F -  
Max Temperature 67 °F 58 °F 78 °F (1998)
Min Temperature 50 °F 39 °F 35 °F (1997)
Degree Days  
Heating Degree Days 6    
Growing Degree Days 8 (Base 50)    
Moisture  
Dew Point 51 °F    
Average Humidity 74    
Maximum Humidity 88    
Minimum Humidity 50    
Precipitation  
Precipitation 0.00 in 0.08 in - ()
Sea Level Pressure  
Sea Level Pressure 30.25 in    
Wind  
Wind Speed 4 mph ()    
Max Wind Speed 12 mph    
Max Gust Speed -    
Visibility 14.4 miles    
Events      
Averages and records for this station are not official NWS values.
T = Trace of Precipitation, MM = Missing Value Source: Averaged Metar Reports

Daily Weather History Graph

Daily Weather History Graph

Search for Another Location

Airport or City:

Trip Planner

Search our weather history database for the weather conditions in past years. The results will help you decide how hot, cold, wet, or windy it might be!

Date:

Astronomy

Sep. 27, 2013 Rise Set
Actual Time 7:11 AM EDT 7:06 PM EDT
Civil Twilight 6:43 AM EDT 7:34 PM EDT
Nautical Twilight 6:09 AM EDT 8:08 PM EDT
Astronomical Twilight 5:35 AM EDT 8:42 PM EDT
Moon No Moon Rise 2:53 PM EDT (9/27)
Length of Visible Light 12h 51m
Length of Day
11h 54m
Last Quarter, 45% of the Moon is Illuminated
Sep 27
Last Quarter
Oct 4
New
Oct 11
First Quarter
Oct 18
Full
Oct 26
Last Quarter

Hourly Weather History & Observations

Time (EDT) Temp. Dew Point Humidity Pressure Visibility Wind Dir Wind Speed Gust Speed Precip Events Conditions
12:00 AM 57.2 °F 48.2 °F 72% 30.17 in 15.0 mi NNE 5.8 mph - N/A   Partly Cloudy
1:00 AM 57.2 °F 48.2 °F 72% 30.18 in 15.0 mi Calm Calm - N/A   Clear
2:00 AM 54 °F 48 °F 73% 30.19 in 15 mi SSW 1.2 mph - -  
2:00 AM 53.6 °F 48.2 °F 82% 30.19 in 15.0 mi Calm Calm - N/A   Clear
3:00 AM 53.6 °F 48.2 °F 82% 30.19 in 15.0 mi NNW 4.6 mph - N/A   Clear
4:00 AM 51.8 °F 46.4 °F 82% 30.20 in 15.0 mi NNE 5.8 mph - N/A   Clear
5:00 AM 51.8 °F 48.2 °F 88% 30.22 in 15.0 mi North 3.5 mph - N/A   Mostly Cloudy
5:15 AM 53.6 °F 48.2 °F 82% 30.22 in 10.0 mi North 3.5 mph - N/A   Scattered Clouds
6:00 AM 51.8 °F 48.2 °F 88% 30.24 in 10.0 mi North 3.5 mph - N/A   Scattered Clouds
7:00 AM 53.6 °F 50.0 °F 88% 30.24 in 15.0 mi NNE 5.8 mph - N/A   Mostly Cloudy
8:00 AM 56 °F 52 °F 80% 30.27 in 12 mi NNE 4.6 mph - -   Mostly Cloudy
8:00 AM 55.4 °F 51.8 °F 88% 30.27 in 12.0 mi NNE 5.8 mph - N/A   Mostly Cloudy
9:00 AM 59.0 °F 50.0 °F 72% 30.27 in 15.0 mi ENE 4.6 mph - N/A   Mostly Cloudy
10:00 AM 60.8 °F 50.0 °F 68% 30.28 in 15.0 mi East 8.1 mph - N/A   Partly Cloudy
11:00 AM 62.6 °F 50.0 °F 63% 30.29 in 15.0 mi East 5.8 mph - N/A   Partly Cloudy
12:00 PM 64.4 °F 50.0 °F 59% 30.29 in 15.0 mi East 11.5 mph - N/A   Partly Cloudy
1:00 PM 66.2 °F 51.8 °F 60% 30.28 in 15.0 mi East 4.6 mph - N/A   Clear
2:00 PM 66 °F 52 °F 50% 30.28 in 15 mi SE 8.1 mph - -  
2:00 PM 66.2 °F 51.8 °F 60% 30.28 in 15.0 mi SE 9.2 mph - N/A   Clear
3:00 PM 66.2 °F 51.8 °F 60% 30.27 in 15.0 mi South 6.9 mph - N/A   Clear
4:00 PM 66.2 °F 51.8 °F 60% 30.26 in 15.0 mi SSE 8.1 mph - N/A   Clear
5:00 PM 64.4 °F 51.8 °F 64% 30.25 in 15.0 mi SE 6.9 mph - N/A   Partly Cloudy
6:00 PM 62.6 °F 53.6 °F 72% 30.26 in 15.0 mi SSE 8.1 mph - N/A   Partly Cloudy
7:00 PM 60.8 °F 51.8 °F 72% 30.26 in 15.0 mi SE 5.8 mph - N/A   Partly Cloudy
8:00 PM 60 °F 53 °F 71% 30.27 in 15 mi ESE 4.6 mph - -   Clear
8:00 PM 59.0 °F 53.6 °F 82% 30.27 in 15.0 mi ESE 4.6 mph - N/A   Partly Cloudy
9:00 PM 59.0 °F 53.6 °F 82% 30.27 in 15.0 mi East 5.8 mph - N/A   Clear
10:00 PM 59.0 °F 53.6 °F 82% 30.28 in 15.0 mi East 2.3 mph - N/A   Clear
11:00 PM 59.0 °F 53.6 °F 82% 30.27 in 15.0 mi ESE 3.5 mph - N/A   Clear